Estación de Curicó

Ultimos registro cada 15 minutos 65
Estación Fecha / Hora Temperatura Humedad Lluvia Velocidad Dirección Radiación Presion
65 Curicó 07-05-2026 16:00 14,6 61,6 0 1,7 201 156,9 998,9
64 Curicó 07-05-2026 15:45 15 61,4 0 1,3 201 189,4 998,8
63 Curicó 07-05-2026 15:30 15,8 60 0 1 184 321,9 998,1
62 Curicó 07-05-2026 15:15 16 60,2 0 1,3 219 400,6 998,4
61 Curicó 07-05-2026 15:00 15,9 61,4 0 1 216 384,4 998,1
60 Curicó 07-05-2026 14:45 16 63 0 1,3 218 413,1 998
59 Curicó 07-05-2026 14:30 15,8 62,9 0 1,3 194 431,9 998,3
58 Curicó 07-05-2026 14:15 15,8 64,1 0 1 222 453,1 998,3
57 Curicó 07-05-2026 14:00 15,5 65,8 0 1 218 478,1 998,1
56 Curicó 07-05-2026 13:45 15,2 68,5 0 0,7 180 483,1 998,5
55 Curicó 07-05-2026 13:30 15,3 72,4 0 0,7 128 503,1 998,5
54 Curicó 07-05-2026 13:15 14,8 72,2 0 0,7 227 528,1 998,6
53 Curicó 07-05-2026 13:00 14,3 75,2 0 0,7 111 579,4 998,8
52 Curicó 07-05-2026 12:45 14,2 74,1 0 1 139 544,4 999,1
51 Curicó 07-05-2026 12:30 14,4 75,7 0 0,7 194 559,4 999,2
50 Curicó 07-05-2026 12:15 13,6 78,7 0 1,3 159 579,4 999,5
49 Curicó 07-05-2026 12:00 12,7 77,7 0 1,7 136 175,6 1000,4
48 Curicó 07-05-2026 11:45 12,4 77,9 0 1,7 163 516,9 999,8
47 Curicó 07-05-2026 11:30 12,7 79,4 0 1,3 178 199,4 1000,5
46 Curicó 07-05-2026 11:15 12,2 80,8 0 1,3 198 488,1 999,9
45 Curicó 07-05-2026 11:00 11,9 85,3 0 1 191 473,1 999,9
44 Curicó 07-05-2026 10:45 11,5 87,9 0,2 1 175 466,9 999,9
43 Curicó 07-05-2026 10:30 10,8 90,4 0 1 215 281,9 1000,2
42 Curicó 07-05-2026 10:15 9,8 90,7 0 1 212 213,1 1000,6
41 Curicó 07-05-2026 10:00 9,5 91,6 0 0,7 190 156,9 1000,7
40 Curicó 07-05-2026 09:45 9 92,3 0 0,7 201 113,1 1000,8
39 Curicó 07-05-2026 09:30 8,9 93 0 1 219 121,9 1000,6
38 Curicó 07-05-2026 09:15 8,7 94,2 0 0,7 212 119,4 1000,4
37 Curicó 07-05-2026 09:00 8,3 94,9 0 0,3 204 70,6 1000,6
36 Curicó 07-05-2026 08:45 8,2 95,3 0 0,7 185 39,4 1000,4
35 Curicó 07-05-2026 08:30 8 95,7 0 0,7 180 45,6 1000,4
34 Curicó 07-05-2026 08:15 7,7 95,6 0 0,3 131 30,6 1000,2
33 Curicó 07-05-2026 08:00 7,3 95,3 0 0,3 131 23,1 1000
32 Curicó 07-05-2026 07:45 7,4 95,2 0 1 208 8,1 999,6
31 Curicó 07-05-2026 07:30 7,6 94,8 0 0,7 215 3,1 999,5
30 Curicó 07-05-2026 07:15 7,9 94,6 0 0,3 205 0,6 999,5
29 Curicó 07-05-2026 07:00 7,8 94,4 0 0,3 211 0,6 999,5
28 Curicó 07-05-2026 06:45 8,1 94,3 0 0,7 195 0,6 999,4
27 Curicó 07-05-2026 06:30 7,8 93,8 0 0,7 161 0,6 999,5
26 Curicó 07-05-2026 06:15 8,1 93,3 0 0,7 174 0,6 999,3
25 Curicó 07-05-2026 06:00 8,3 92,9 0 1 201 0,6 998,8
24 Curicó 07-05-2026 05:45 8,6 92,5 0 0,7 195 0,6 998,6
23 Curicó 07-05-2026 05:30 9,1 92,1 0 1 194 0,6 998,7
22 Curicó 07-05-2026 05:15 9,3 91,8 0 1,3 178 0,6 998,7
21 Curicó 07-05-2026 05:00 9,4 91,7 0 1,3 183 0,6 998,6
20 Curicó 07-05-2026 04:45 9,5 91,7 0 1,3 206 0,6 998,2
19 Curicó 07-05-2026 04:30 9,5 91,9 0 1 215 0,6 998
18 Curicó 07-05-2026 04:15 9,2 91,8 0 0,7 209 0,6 997,7
17 Curicó 07-05-2026 04:00 9,5 91,2 0 1 213 0,6 997,8
16 Curicó 07-05-2026 03:45 9,7 91 0 1 198 0,6 997,9
15 Curicó 07-05-2026 03:30 9,7 91,2 0 0,7 199 0,6 997,9
14 Curicó 07-05-2026 03:15 9,9 90,7 0 1 212 0,6 997,6
13 Curicó 07-05-2026 03:00 10 91,1 0 0,3 206 0,6 997,8
12 Curicó 07-05-2026 02:45 9,9 91,3 0 0,7 237 0,6 997,9
11 Curicó 07-05-2026 02:30 10 91,3 0 0,7 244 0,6 997,8
10 Curicó 07-05-2026 02:15 10 91,5 0 0,7 248 0,6 997,6
9 Curicó 07-05-2026 02:00 10,1 91,8 0 0,3 239 0,6 997,4
8 Curicó 07-05-2026 01:45 10,1 92 0 0,3 229 0,6 997,3
7 Curicó 07-05-2026 01:30 10,1 92,1 0 0,3 220 0,6 997,1
6 Curicó 07-05-2026 01:15 10,1 92,1 0 0,3 208 0,6 997
5 Curicó 07-05-2026 01:00 10,2 92,2 0 0,7 236 0,6 996,7
4 Curicó 07-05-2026 00:45 10,5 93,2 0 0,7 225 0,6 997
3 Curicó 07-05-2026 00:30 10,4 94,2 0 0,3 219 0,6 997,1
2 Curicó 07-05-2026 00:15 10,1 95,1 0 0 223 0,6 996,9
1 Curicó 07-05-2026 00:00 10,1 95,2 0 0 246 0,6 996,8